Weather in Katyn'

Russia / Smolensk Oblast     54°46′20″N   31°41′14″E
temp.,
°C
wind,
m/s
gust,
m/s
humid.,
%
clouds,
%
prec.,
mm/h
press.,
hPa
HPBL,
m
25 october, mon
mon2500:00−1nw35895 0.0 1030110
03:00−2nw22905 0.0 103140
06:00−2wsw238992 0.0 103156
09:000sw358020 0.0 1031159
12:00+4sw466455 0.0 1031543
15:00+6sw58605 0.0 1029841
18:00+2ssw410785 0.0 1029204
21:00+1sw5138012 0.0 1028300
26 october, tue
tue2600:00+1sw51380100 0.0 1027318
03:00+1ssw51377100 0.0 1027304
06:00+1ssw51474100 0.0 1025308
09:00+1ssw51471100 0.0 1024362
12:00+5ssw71454100 0.0 1023516
15:00+7ssw61352100 0.0 1021627
18:00+5ssw5136169 0.0 1021380
21:00+4ssw5136699 0.0 1021347
27 october, wed
wed2700:00+3ssw41171100 0.0 1020262
03:00+2ssw41176100 0.0 1020222
06:00+2sw41178100 0.0 1019231
09:00+3sw51276100 0.0 1019311
12:00+7wsw61167100 0.0 1019470
15:00+7wsw5117731 0.0 1019558
18:00+6w41089100 0.0 1020281
21:00+4sw41093100 0.0 1021229
28 october, thu
thu2800:00+5wsw41187100 0.0 1021279
03:00+6sw41088100 0.1 1020287
06:00+7wsw7148599 0.2 1019563
09:00+7wsw61383100 0.2 1019523
12:00+8wsw61385100 0.3 1019545
15:00+9w61287100 0.8 1019546
18:00+9w51193100 0.1 1020441
21:00+9w51195100 0.9 1020467
29 october, fri
fri2900:00+9w41195100 0.6 1021443
03:00+10w41094100 0.8 1022368
06:00+9w499457 0.0 1023311
09:00+8w369442 0.0 1024138
12:00+12w33815 0.0 1025329
15:00+12w337732 0.0 1025476
18:00+9wnw229352 0.0 102612
21:00+8ssw11948 0.0 102710